| time (UTC) | temp C | wind direction | speed KPH | gust KPH | rain 1hr cm | rain 24hr cm | rain mn cm | humidity % | barometer mb |
| 20260503022003 | 9 | 332 | 1.6 | 3.2 | 0.00 | 0.00 | 0.00 | 68 | 1017.3 |
| 20260503021503 | 9 | 331 | 0.0 | 3.2 | 0.00 | 0.00 | 0.00 | 66 | 1017.2 |
| 20260503021003 | 9 | 336 | 1.6 | 3.2 | 0.00 | 0.00 | 0.00 | 66 | 1017.4 |
| 20260503020503 | 9 | 21 | 0.0 | 1.6 | 0.00 | 0.00 | 0.00 | 65 | 1017.4 |
| 20260503020003 | 9 | 5 | 0.0 | 1.6 | 0.00 | 0.00 | 0.00 | 65 | 1017.4 |
| 20260503015503 | 9 | 15 | 0.0 | 3.2 | 0.00 | 0.00 | 0.00 | 65 | 1017.4 |
| 20260503015003 | 9 | 24 | 0.0 | 3.2 | 0.00 | 0.00 | 0.00 | 65 | 1017.4 |
| 20260503014503 | 9 | 356 | 1.6 | 3.2 | 0.00 | 0.00 | 0.00 | 65 | 1017.3 |
| 20260503014003 | 9 | 17 | 0.0 | 3.2 | 0.00 | 0.00 | 0.00 | 65 | 1017.3 |
| 20260503013504 | 9 | 38 | 0.0 | 3.2 | 0.00 | 0.00 | 0.00 | 65 | 1017.4 |
| 20260503013004 | 9 | 20 | 0.0 | 3.2 | 0.00 | 0.00 | 0.00 | 65 | 1017.5 |
| 20260503012504 | 9 | 25 | 0.0 | 3.2 | 0.00 | 0.00 | 0.00 | 65 | 1017.3 |
| 20260503012213 | 9 | 34 | 0.0 | 3.2 | 0.00 | 0.00 | 0.00 | 65 | 1017.6 |
| 20260503011504 | 9 | 49 | 0.0 | 1.6 | 0.00 | 0.00 | 0.00 | 65 | 1017.5 |
| 20260503011004 | 9 | 48 | 0.0 | 3.2 | 0.00 | 0.00 | 0.00 | 65 | 1017.6 |
| 20260503010504 | 9 | 25 | 0.0 | 4.8 | 0.00 | 0.00 | 0.00 | 67 | 1017.7 |
| 20260503010004 | 9 | 359 | 0.0 | 4.8 | 0.00 | 0.00 | 0.00 | 68 | 1017.7 |
| 20260503005504 | 9 | 330 | 1.6 | 3.2 | 0.00 | 0.00 | 0.00 | 69 | 1017.9 |
| 20260503005004 | 9 | 317 | 3.2 | 4.8 | 0.00 | 0.00 | 0.00 | 70 | 1017.8 |
| 20260503004504 | 9 | 315 | 0.0 | 4.8 | 0.00 | 0.00 | 0.00 | 70 | 1017.7 |
| 20260503004004 | 9 | 316 | 3.2 | 3.2 | 0.00 | 0.00 | 0.00 | 70 | 1017.8 |
| 20260503003504 | 9 | 316 | 3.2 | 4.8 | 0.00 | 0.00 | 0.00 | 70 | 1017.9 |
| 20260503003003 | 9 | 315 | 0.0 | 4.8 | 0.00 | 0.00 | 0.00 | 69 | 1018.1 |
| 20260503002504 | 9 | 317 | 1.6 | 4.8 | 0.00 | 0.00 | 0.00 | 70 | 1018.2 |
| 20260503002214 | 9 | 317 | 3.2 | 6.4 | 0.00 | 0.00 | 0.00 | 69 | 1018.2 |
| 20260503001717 | 9 | 315 | 3.2 | 6.4 | 0.00 | 0.00 | 0.00 | 68 | 1018.3 |
| 20260503001004 | 9 | 340 | 3.2 | 3.2 | 0.00 | 0.00 | 0.00 | 69 | 1018.1 |
| 20260503000503 | 9 | 339 | 1.6 | 6.4 | 0.00 | 0.00 | 0.00 | 69 | 1018.3 |
| 20260503000003 | 9 | 327 | 1.6 | 6.4 | 0.00 | 0.00 | 0.00 | 69 | 1018.3 |
| 20260502235503 | 9 | 325 | 3.2 | 4.8 | 0.00 | 0.00 | 0.00 | 70 | 1018.4 |
| 20260502235003 | 9 | 320 | 3.2 | 4.8 | 0.00 | 0.00 | 0.00 | 70 | 1018.5 |
| 20260502234503 | 9 | 315 | 3.2 | 4.8 | 0.00 | 0.00 | 0.00 | 70 | 1018.5 |
| 20260502234003 | 9 | 316 | 3.2 | 6.4 | 0.00 | 0.00 | 0.00 | 70 | 1018.3 |
| 20260502233503 | 9 | 320 | 3.2 | 6.4 | 0.00 | 0.00 | 0.00 | 70 | 1018.3 |
| 20260502233004 | 10 | 323 | 3.2 | 3.2 | 0.00 | 0.00 | 0.00 | 70 | 1018.3 |
| 20260502232503 | 10 | 317 | 1.6 | 3.2 | 0.00 | 0.00 | 0.00 | 69 | 1018.4 |
| 20260502232003 | 10 | 319 | 0.0 | 3.2 | 0.00 | 0.00 | 0.00 | 70 | 1018.6 |
| 20260502231503 | 10 | 319 | 3.2 | 6.4 | 0.00 | 0.00 | 0.00 | 69 | 1018.6 |
| 20260502231003 | 10 | 318 | 3.2 | 6.4 | 0.00 | 0.00 | 0.00 | 70 | 1018.5 |
| 20260502230503 | 10 | 323 | 3.2 | 4.8 | 0.00 | 0.00 | 0.00 | 70 | 1018.6 |
| 20260502230003 | 10 | 319 | 3.2 | 4.8 | 0.00 | 0.00 | 0.00 | 70 | 1018.6 |
| 20260502225503 | 10 | 315 | 1.6 | 4.8 | 0.00 | 0.00 | 0.00 | 70 | 1018.5 |
| 20260502225217 | 10 | 315 | 3.2 | 4.8 | 0.00 | 0.00 | 0.00 | 70 | 1018.6 |
| 20260502224503 | 10 | 315 | 1.6 | 4.8 | 0.00 | 0.00 | 0.00 | 70 | 1018.6 |
| 20260502224003 | 10 | 319 | 1.6 | 4.8 | 0.00 | 0.00 | 0.00 | 70 | 1018.4 |
| 20260502223716 | 10 | 319 | 3.2 | 4.8 | 0.00 | 0.00 | 0.00 | 70 | 1018.5 |
| 20260502223003 | 10 | 316 | 1.6 | 4.8 | 0.00 | 0.00 | 0.00 | 70 | 1018.7 |
| 20260502222503 | 10 | 317 | 1.6 | 3.2 | 0.00 | 0.00 | 0.00 | 70 | 1018.6 |
| 20260502222215 | 10 | 315 | 1.6 | 3.2 | 0.00 | 0.00 | 0.00 | 70 | 1018.6 |
| 20260502221503 | 10 | 324 | 1.6 | 3.2 | 0.00 | 0.00 | 0.00 | 70 | 1018.6 |
| 20260502221003 | 10 | 321 | 0.0 | 3.2 | 0.00 | 0.00 | 0.00 | 70 | 1018.6 |
| 20260502220714 | 10 | 316 | 1.6 | 3.2 | 0.00 | 0.00 | 0.00 | 70 | 1018.7 |
| 20260502220004 | 10 | 320 | 1.6 | 3.2 | 0.00 | 0.00 | 0.00 | 70 | 1018.6 |
| 20260502215504 | 10 | 316 | 3.2 | 4.8 | 0.00 | 0.00 | 0.00 | 70 | 1018.8 |
| 20260502215218 | 10 | 316 | 3.2 | 4.8 | 0.00 | 0.00 | 0.00 | 70 | 1018.6 |
| 20260502214504 | 10 | 315 | 3.2 | 4.8 | 0.00 | 0.00 | 0.00 | 70 | 1018.7 |
| 20260502214004 | 10 | 315 | 1.6 | 4.8 | 0.00 | 0.00 | 0.00 | 70 | 1018.6 |
| 20260502213504 | 10 | 315 | 3.2 | 4.8 | 0.00 | 0.00 | 0.00 | 70 | 1018.7 |
| 20260502213004 | 10 | 315 | 3.2 | 4.8 | 0.00 | 0.00 | 0.00 | 70 | 1018.5 |
| 20260502212504 | 10 | 315 | 3.2 | 3.2 | 0.00 | 0.00 | 0.00 | 69 | 1018.7 |
| 20260502212004 | 10 | 320 | 1.6 | 3.2 | 0.00 | 0.00 | 0.00 | 67 | 1018.5 |
| 20260502211504 | 11 | 339 | 3.2 | 3.2 | 0.00 | 0.00 | 0.00 | 64 | 1018.8 |
| 20260502211217 | 11 | 347 | 1.6 | 3.2 | 0.00 | 0.00 | 0.00 | 64 | 1018.6 |
| 20260502210504 | 11 | 345 | 1.6 | 3.2 | 0.00 | 0.00 | 0.00 | 63 | 1018.7 |
| 20260502210004 | 11 | 335 | 1.6 | 3.2 | 0.00 | 0.00 | 0.00 | 63 | 1018.8 |
| 20260502205504 | 11 | 344 | 0.0 | 3.2 | 0.00 | 0.00 | 0.00 | 63 | 1018.8 |
| 20260502205004 | 11 | 352 | 0.0 | 3.2 | 0.00 | 0.00 | 0.00 | 63 | 1018.8 |
| 20260502204504 | 11 | 360 | 0.0 | 3.2 | 0.00 | 0.00 | 0.00 | 63 | 1018.9 |
| 20260502204004 | 11 | 359 | 0.0 | 3.2 | 0.00 | 0.00 | 0.00 | 63 | 1018.7 |
| 20260502203504 | 11 | 352 | 1.6 | 3.2 | 0.00 | 0.00 | 0.00 | 64 | 1018.7 |
| 20260502203004 | 11 | 330 | 1.6 | 3.2 | 0.00 | 0.00 | 0.00 | 65 | 1018.9 |
| 20260502202503 | 11 | 339 | 3.2 | 3.2 | 0.00 | 0.00 | 0.00 | 66 | 1018.8 |
| 20260502202003 | 11 | 350 | 0.0 | 4.8 | 0.00 | 0.00 | 0.00 | 64 | 1018.8 |
| 20260502201504 | 11 | 333 | 3.2 | 6.4 | 0.00 | 0.00 | 0.00 | 65 | 1018.6 |
| 20260502201003 | 11 | 342 | 3.2 | 6.4 | 0.00 | 0.00 | 0.00 | 66 | 1018.7 |
| 20260502200503 | 11 | 358 | 3.2 | 6.4 | 0.00 | 0.00 | 0.00 | 64 | 1018.7 |
| 20260502200003 | 11 | 353 | 3.2 | 6.4 | 0.00 | 0.00 | 0.00 | 64 | 1018.6 |
| 20260502195503 | 11 | 339 | 1.6 | 4.8 | 0.00 | 0.00 | 0.00 | 64 | 1018.6 |
| 20260502195004 | 11 | 328 | 1.6 | 4.8 | 0.00 | 0.00 | 0.00 | 64 | 1018.5 |
| 20260502194504 | 11 | 333 | 3.2 | 4.8 | 0.00 | 0.00 | 0.00 | 65 | 1018.7 |
| 20260502194003 | 11 | 336 | 0.0 | 6.4 | 0.00 | 0.00 | 0.00 | 63 | 1018.7 |
| 20260502193503 | 11 | 330 | 1.6 | 6.4 | 0.00 | 0.00 | 0.00 | 65 | 1018.8 |
| 20260502193216 | 11 | 321 | 3.2 | 6.4 | 0.00 | 0.00 | 0.00 | 65 | 1018.5 |
| 20260502192714 | 11 | 329 | 3.2 | 3.2 | 0.00 | 0.00 | 0.00 | 66 | 1018.6 |
| 20260502192003 | 11 | 330 | 1.6 | 4.8 | 0.00 | 0.00 | 0.00 | 65 | 1018.5 |
| 20260502191503 | 11 | 318 | 3.2 | 4.8 | 0.00 | 0.00 | 0.00 | 66 | 1018.6 |
| 20260502191004 | 11 | 314 | 3.2 | 4.8 | 0.00 | 0.00 | 0.00 | 65 | 1018.5 |
| 20260502190503 | 12 | 316 | 3.2 | 6.4 | 0.00 | 0.00 | 0.00 | 62 | 1018.6 |
| 20260502190003 | 12 | 317 | 3.2 | 6.4 | 0.00 | 0.00 | 0.00 | 63 | 1018.4 |
| 20260502185717 | 11 | 319 | 4.8 | 6.4 | 0.00 | 0.00 | 0.00 | 65 | 1018.7 |
| 20260502185003 | 12 | 322 | 3.2 | 6.4 | 0.00 | 0.00 | 0.00 | 65 | 1018.5 |
| 20260502184503 | 12 | 317 | 4.8 | 6.4 | 0.00 | 0.00 | 0.00 | 63 | 1018.4 |
| 20260502184003 | 12 | 316 | 4.8 | 6.4 | 0.00 | 0.00 | 0.00 | 63 | 1018.6 |
| 20260502183504 | 12 | 324 | 1.6 | 3.2 | 0.00 | 0.00 | 0.00 | 63 | 1018.5 |
| 20260502183004 | 12 | 360 | 1.6 | 3.2 | 0.00 | 0.00 | 0.00 | 58 | 1018.4 |
| 20260502182504 | 12 | 6 | 1.6 | 3.2 | 0.00 | 0.00 | 0.00 | 56 | 1018.2 |
| 20260502182004 | 12 | 329 | 0.0 | 3.2 | 0.00 | 0.00 | 0.00 | 56 | 1018.1 |
| 20260502181504 | 13 | 322 | 1.6 | 3.2 | 0.00 | 0.00 | 0.00 | 56 | 1018.2 |
| 20260502181004 | 13 | 356 | 1.6 | 3.2 | 0.00 | 0.00 | 0.00 | 54 | 1018.3 |
| 20260502180504 | 14 | 45 | 0.0 | 1.6 | 0.00 | 0.00 | 0.00 | 51 | 1018.0 |
| 20260502170504 | 19 | 176 | 3.2 | 9.7 | 0.00 | 0.00 | 0.00 | 40 | 1018.1 |
| 20260502164003 | 20 | 191 | 4.8 | 9.7 | 0.00 | 0.00 | 0.00 | 38 | 1018.1 |
| 20260502163503 | 20 | 176 | 1.6 | 9.7 | 0.00 | 0.00 | 0.00 | 38 | 1017.9 |
| 20260502163003 | 20 | 177 | 3.2 | 6.4 | 0.00 | 0.00 | 0.00 | 39 | 1018.1 |
| 20260502162503 | 20 | 190 | 3.2 | 8.0 | 0.00 | 0.00 | 0.00 | 40 | 1018.0 |
| 20260502162003 | 20 | 181 | 4.8 | 8.0 | 0.00 | 0.00 | 0.00 | 39 | 1018.1 |
| 20260502161503 | 20 | 175 | 4.8 | 6.4 | 0.00 | 0.00 | 0.00 | 38 | 1018.2 |
| 20260502161003 | 21 | 180 | 3.2 | 6.4 | 0.00 | 0.00 | 0.00 | 38 | 1018.2 |
| 20260502160504 | 20 | 182 | 4.8 | 6.4 | 0.00 | 0.00 | 0.00 | 39 | 1018.2 |
| 20260502152003 | 20 | 179 | 6.4 | 9.7 | 0.00 | 0.00 | 0.00 | 37 | 1018.6 |
| 20260502151504 | 20 | 183 | 3.2 | 6.4 | 0.00 | 0.00 | 0.00 | 39 | 1018.7 |
| 20260502151004 | 20 | 168 | 4.8 | 12.9 | 0.00 | 0.00 | 0.00 | 37 | 1018.7 |
| 20260502150504 | 20 | 177 | 3.2 | 12.9 | 0.00 | 0.00 | 0.00 | 39 | 1018.7 |
| 20260502130504 | 18 | 163 | 4.8 | 12.9 | 0.00 | 0.00 | 0.00 | 41 | 1020.0 |
| 20260502123503 | 17 | 180 | 4.8 | 9.7 | 0.00 | 0.00 | 0.00 | 42 | 1020.4 |
| 20260502123003 | 17 | 163 | 4.8 | 11.3 | 0.00 | 0.00 | 0.00 | 43 | 1020.5 |
| 20260502122503 | 17 | 163 | 6.4 | 11.3 | 0.00 | 0.00 | 0.00 | 46 | 1020.4 |
| 20260502122003 | 17 | 180 | 6.4 | 9.7 | 0.00 | 0.00 | 0.00 | 44 | 1020.3 |
| 20260502121503 | 17 | 164 | 6.4 | 11.3 | 0.00 | 0.00 | 0.00 | 47 | 1020.6 |
| 20260502121003 | 16 | 110 | 6.4 | 11.3 | 0.00 | 0.00 | 0.00 | 45 | 1020.6 |
| 20260502120504 | 17 | 114 | 6.4 | 9.7 | 0.00 | 0.00 | 0.00 | 45 | 1020.6 |
| 20260502120213 | 17 | 160 | 6.4 | 9.7 | 0.00 | 0.00 | 0.00 | 45 | 1020.8 |
| 20260502115503 | 16 | 179 | 4.8 | 9.7 | 0.00 | 0.00 | 0.00 | 44 | 1020.7 |
| 20260502115004 | 16 | 160 | 3.2 | 8.0 | 0.00 | 0.00 | 0.00 | 45 | 1021.1 |
| 20260502114004 | 16 | 185 | 4.8 | 9.7 | 0.00 | 0.00 | 0.00 | 47 | 1021.0 |
| 20260502113718 | 16 | 168 | 6.4 | 9.7 | 0.00 | 0.00 | 0.00 | 46 | 1021.2 |
| 20260502113004 | 16 | 184 | 6.4 | 9.7 | 0.00 | 0.00 | 0.00 | 48 | 1021.0 |
| 20260502112504 | 16 | 188 | 6.4 | 9.7 | 0.00 | 0.00 | 0.00 | 48 | 1021.4 |
| 20260502112004 | 16 | 169 | 6.4 | 11.3 | 0.00 | 0.00 | 0.00 | 49 | 1021.0 |
| 20260502111504 | 16 | 151 | 3.2 | 11.3 | 0.00 | 0.00 | 0.00 | 48 | 1021.3 |
| 20260502111004 | 16 | 144 | 3.2 | 9.7 | 0.00 | 0.00 | 0.00 | 50 | 1021.5 |
| 20260502110504 | 16 | 141 | 4.8 | 9.7 | 0.00 | 0.00 | 0.00 | 49 | 1021.4 |
| 20260502110004 | 15 | 148 | 3.2 | 9.7 | 0.00 | 0.00 | 0.00 | 46 | 1021.5 |
| 20260502105504 | 16 | 142 | 6.4 | 9.7 | 0.00 | 0.00 | 0.00 | 50 | 1021.6 |
| 20260502105004 | 15 | 139 | 6.4 | 9.7 | 0.00 | 0.00 | 0.00 | 50 | 1021.8 |
| 20260502104503 | 15 | 139 | 6.4 | 11.3 | 0.00 | 0.00 | 0.00 | 50 | 1021.7 |
| 20260502104004 | 15 | 182 | 3.2 | 11.3 | 0.00 | 0.00 | 0.00 | 50 | 1021.7 |
| 20260502103504 | 15 | 186 | 3.2 | 11.3 | 0.00 | 0.00 | 0.00 | 50 | 1021.9 |
| 20260502103003 | 15 | 145 | 6.4 | 8.0 | 0.00 | 0.00 | 0.00 | 52 | 1021.7 |
| 20260502102714 | 15 | 142 | 3.2 | 8.0 | 0.00 | 0.00 | 0.00 | 51 | 1022.0 |
| 20260502102218 | 14 | 136 | 3.2 | 8.0 | 0.00 | 0.00 | 0.00 | 50 | 1021.9 |
| 20260502101503 | 14 | 130 | 6.4 | 8.0 | 0.00 | 0.00 | 0.00 | 51 | 1022.0 |
| 20260502101004 | 14 | 167 | 4.8 | 6.4 | 0.00 | 0.00 | 0.00 | 51 | 1022.2 |
| 20260502100503 | 14 | 172 | 4.8 | 6.4 | 0.00 | 0.00 | 0.00 | 51 | 1022.2 |
| 20260502091503 | 11 | 124 | 4.8 | 6.4 | 0.00 | 0.00 | 0.00 | 58 | 1022.3 |
| 20260502091003 | 11 | 125 | 3.2 | 6.4 | 0.00 | 0.00 | 0.00 | 60 | 1022.3 |
| 20260502090504 | 11 | 147 | 3.2 | 4.8 | 0.00 | 0.00 | 0.00 | 59 | 1022.3 |
| 20260502090215 | 11 | 161 | 3.2 | 4.8 | 0.00 | 0.00 | 0.00 | 60 | 1022.7 |
| 20260502071004 | 8 | 45 | 0.0 | 1.6 | 0.00 | 0.00 | 0.00 | 66 | 1022.6 |
| 20260502070503 | 8 | 45 | 0.0 | 1.6 | 0.00 | 0.00 | 0.00 | 66 | 1022.6 |
| 20260502070004 | 8 | 45 | 0.0 | 1.6 | 0.00 | 0.00 | 0.00 | 66 | 1022.8 |
| 20260502065504 | 8 | 360 | 0.0 | 1.6 | 0.00 | 0.00 | 0.00 | 68 | 1022.6 |
| 20260502065217 | 8 | 360 | 0.0 | 1.6 | 0.00 | 0.00 | 0.00 | 68 | 1022.7 |
| 20260502064504 | 8 | 42 | 0.0 | 1.6 | 0.00 | 0.00 | 0.00 | 68 | 1022.6 |
| 20260502064004 | 8 | 51 | 0.0 | 1.6 | 0.00 | 0.00 | 0.00 | 68 | 1022.6 |
| 20260502063503 | 8 | 27 | 0.0 | 1.6 | 0.00 | 0.00 | 0.00 | 68 | 1022.5 |
| 20260502063214 | 8 | 11 | 0.0 | 1.6 | 0.00 | 0.00 | 0.00 | 69 | 1022.6 |
| 20260502062503 | 8 | 343 | 0.0 | 1.6 | 0.00 | 0.00 | 0.00 | 70 | 1022.5 |
| 20260502062003 | 8 | 315 | 0.0 | 1.6 | 0.00 | 0.00 | 0.00 | 70 | 1022.4 |
| 20260502061504 | 8 | 315 | 0.0 | 1.6 | 0.00 | 0.00 | 0.00 | 70 | 1022.4 |
| 20260502061003 | 8 | 0 | 0.0 | 0.0 | 0.00 | 0.00 | 0.00 | 70 | 1022.6 |
| 20260502060503 | 8 | 315 | 0.0 | 1.6 | 0.00 | 0.00 | 0.00 | 70 | 1022.6 |
| 20260502060003 | 8 | 315 | 0.0 | 1.6 | 0.00 | 0.00 | 0.00 | 70 | 1022.4 |
| 20260502055715 | 8 | 315 | 0.0 | 3.2 | 0.00 | 0.00 | 0.00 | 70 | 1022.6 |
| 20260502055003 | 8 | 315 | 0.0 | 3.2 | 0.00 | 0.00 | 0.00 | 70 | 1022.7 |
| 20260502054503 | 8 | 315 | 1.6 | 3.2 | 0.00 | 0.00 | 0.00 | 70 | 1022.4 |
| 20260502054003 | 8 | 315 | 0.0 | 3.2 | 0.00 | 0.00 | 0.00 | 70 | 1022.5 |
| 20260502053717 | 8 | 317 | 0.0 | 3.2 | 0.00 | 0.00 | 0.00 | 69 | 1022.5 |
| 20260502053003 | 8 | 336 | 0.0 | 3.2 | 0.00 | 0.00 | 0.00 | 68 | 1022.5 |
| 20260502052718 | 8 | 345 | 0.0 | 3.2 | 0.00 | 0.00 | 0.00 | 68 | 1022.3 |
| 20260502052004 | 8 | 338 | 0.0 | 3.2 | 0.00 | 0.00 | 0.00 | 69 | 1022.4 |
| 20260502051713 | 7 | 330 | 1.6 | 3.2 | 0.00 | 0.00 | 0.00 | 70 | 1022.5 |
| 20260502051004 | 7 | 315 | 0.0 | 1.6 | 0.00 | 0.00 | 0.00 | 70 | 1022.7 |
| 20260502050504 | 7 | 315 | 0.0 | 3.2 | 0.00 | 0.00 | 0.00 | 70 | 1022.5 |
| 20260502050218 | 7 | 315 | 0.0 | 3.2 | 0.00 | 0.00 | 0.00 | 70 | 1022.5 |
| 20260502045504 | 7 | 315 | 1.6 | 3.2 | 0.00 | 0.00 | 0.00 | 71 | 1022.5 |
| 20260502045004 | 7 | 315 | 3.2 | 3.2 | 0.00 | 0.00 | 0.00 | 71 | 1022.3 |
| 20260502044504 | 7 | 315 | 1.6 | 3.2 | 0.00 | 0.00 | 0.00 | 72 | 1022.6 |
| 20260502044004 | 7 | 330 | 0.0 | 3.2 | 0.00 | 0.00 | 0.00 | 79 | 1022.5 |
| 20260502043504 | 7 | 334 | 0.0 | 3.2 | 0.00 | 0.00 | 0.00 | 79 | 1022.5 |
| 20260502043004 | 7 | 323 | 1.6 | 3.2 | 0.00 | 0.00 | 0.00 | 79 | 1022.6 |
| 20260502042504 | 7 | 315 | 0.0 | 1.6 | 0.00 | 0.00 | 0.00 | 79 | 1022.3 |
| 20260502042004 | 7 | 315 | 0.0 | 3.2 | 0.00 | 0.00 | 0.00 | 78 | 1022.4 |
| 20260502041714 | 7 | 315 | 0.0 | 3.2 | 0.00 | 0.00 | 0.00 | 79 | 1022.4 |
| 20260502041003 | 7 | 315 | 0.0 | 3.2 | 0.00 | 0.00 | 0.00 | 79 | 1022.3 |
| 20260502040503 | 7 | 315 | 1.6 | 3.2 | 0.00 | 0.00 | 0.00 | 79 | 1022.2 |
| 20260502040004 | 7 | 315 | 1.6 | 4.8 | 0.00 | 0.00 | 0.00 | 79 | 1022.1 |
| 20260502035504 | 7 | 320 | 1.6 | 4.8 | 0.00 | 0.00 | 0.00 | 79 | 1022.1 |
| 20260502035004 | 7 | 326 | 1.6 | 4.8 | 0.00 | 0.00 | 0.00 | 79 | 1022.1 |
| 20260502034503 | 7 | 325 | 1.6 | 4.8 | 0.00 | 0.00 | 0.00 | 78 | 1022.0 |
| 20260502034003 | 7 | 331 | 3.2 | 4.8 | 0.00 | 0.00 | 0.00 | 72 | 1022.2 |
| 20260502033503 | 7 | 330 | 0.0 | 3.2 | 0.00 | 0.00 | 0.00 | 78 | 1022.0 |
| 20260502033003 | 7 | 339 | 3.2 | 3.2 | 0.00 | 0.00 | 0.00 | 72 | 1022.0 |
| 20260502032503 | 7 | 332 | 0.0 | 3.2 | 0.00 | 0.00 | 0.00 | 77 | 1022.0 |
| 20260502032003 | 7 | 325 | 0.0 | 3.2 | 0.00 | 0.00 | 0.00 | 77 | 1022.0 |
| 20260502031503 | 7 | 358 | 1.6 | 3.2 | 0.00 | 0.00 | 0.00 | 71 | 1022.2 |
| 20260502031213 | 7 | 3 | 0.0 | 3.2 | 0.00 | 0.00 | 0.00 | 71 | 1022.2 |
| 20260502030504 | 7 | 360 | 1.6 | 3.2 | 0.00 | 0.00 | 0.00 | 71 | 1022.1 |
| 20260502030003 | 7 | 1 | 0.0 | 3.2 | 0.00 | 0.00 | 0.00 | 71 | 1022.3 |
| 20260502025503 | 7 | 3 | 1.6 | 3.2 | 0.00 | 0.00 | 0.00 | 71 | 1022.3 |
| 20260502025003 | 7 | 2 | 0.0 | 3.2 | 0.00 | 0.00 | 0.00 | 71 | 1022.0 |
| 20260502024504 | 7 | 12 | 1.6 | 3.2 | 0.00 | 0.00 | 0.00 | 71 | 1022.3 |
| 20260502024003 | 7 | 29 | 0.0 | 3.2 | 0.00 | 0.00 | 0.00 | 71 | 1022.0 |
| 20260502023503 | 7 | 32 | 0.0 | 3.2 | 0.00 | 0.00 | 0.00 | 70 | 1022.3 |
| 20260502023003 | 7 | 15 | 0.0 | 3.2 | 0.00 | 0.00 | 0.00 | 70 | 1022.2 |
| 20260502022503 | 7 | 15 | 1.6 | 3.2 | 0.00 | 0.00 | 0.00 | 71 | 1022.1 |